Location: Düngen
(52.0952°N, 10.0219°E)
Time: 16:12:41
(UTC+00:00)

Cosmos 2297 - Pass Details

Date: 11 March 2026
Orbit: 834 x 858 km, 71.0° (Epoch: 14 April)

Event Time Altitude Azimuth Distance (km) Brightness Sun altitude
Rises 19:04:34 0° 184° (S) 3,375 6.7 -17.1°
Reaches altitude 10° 19:07:06 10° 177° (S) 2,449 5.9 -17.5°
Maximum altitude 19:12:19 41° 109° (ESE) 1,208 4.0 -18.2°
Drops below altitude 10° 19:17:36 10° 41° (NE) 2,480 5.9 -19.0°
Sets 19:20:10 0° 35° (NE) 3,424 6.7 -19.4°
